Regional Weather Roundup
Issued by NWS

Home | Current Version | Previous Version | Text Only | Print | Product List | Glossary On
Versions: 1 2 3 4 5 6 7 8 9 10 11 12 13 14 15 16 17 18 19 20 21 22 23 24 25 26 27 28 29 30 31 32 33 34 35 36 37 38 39 40 41 42 43 44 45 46 47 48 49 50
000
ASUS45 KBOU 211710
RWRCO

WEATHER ROUNDUP FOR COLORADO
NATIONAL WEATHER SERVICE PUEBLO CO
1100 AM MDT SAT APR 21 2018

NOTE: "FAIR" INDICATES FEW OR NO CLOUDS BELOW 12000 FEET WITH NO
SIGNIFICANT WEATHER AND/OR OBSTRUCTIONS TO VISIBILITY.

COZ001>005-013-030-031-211800-
...NORTHWEST COLORADO...

CITY           SKY/WX    TMP DP  RH WIND       PRES   REMARKS
CRAIG          CLOUDY    41  34  76 W7        30.20R
HAYDEN         CLOUDY    38  34  85 SE3       30.21R
MEEKER         CLOUDY    40  34  79 SW5       30.21R
RABBIT EARS PA NOT AVBL
STEAMBOAT SPGS CLOUDY    35  33  92 W5        30.19R WCI  31
WALDEN         CLOUDY    32  28  86 NW8       30.19R WCI  25
$$

COZ006>008-011-211800-
...WEST CENTRAL VALLEYS...

CITY           SKY/WX    TMP DP  RH WIND       PRES   REMARKS
GRAND JUNCTION MOSUNNY   51  37  58 SE8       30.19S
MONTROSE       CLOUDY    44  35  70 CALM      30.24R
EAGLE          CLOUDY    39  34  82 E5        30.21S
RIFLE          CLOUDY    43  37  79 N3        30.20S
DELTA          NOT AVBL
NUCLA          FAIR      46  36  66 CALM      30.23S
$$

COZ017>023-064>068-211800-
...SOUTHWEST COLORADO...

CITY           SKY/WX    TMP DP  RH WIND       PRES   REMARKS
DURANGO        SUNNY     48  28  46 N3        30.13R
CORTEZ         MOSUNNY   53  30  41 N16G25    30.15F
PAGOSA SPRINGS FAIR      44  22  43 CALM      30.15R
TELLURIDE      PTSUNNY   35  29  79 W12       30.24R WCI  26
WOLF CREEK PAS CLOUDY    27  19  74 N6        30.25R WCI  20
$$

COZ009-010-012-014-032>034-037-058>063-211800-
...CENTRAL COLORADO...

CITY           SKY/WX    TMP DP  RH WIND       PRES   REMARKS
ASPEN          CLOUDY    34  31  88 N6        30.19R WCI  29
BUENA VISTA    FAIR      38  30  72 S6        30.12F
COPPER MTN     NOT AVBL
BERTHOUD PASS  CLOUDY    18   7  62 MISG      30.15S
COTTONWOOD PAS PTSUNNY   37  30  75 CALM      30.14F
GUNNISON       CLOUDY    40  31  70 SW15      30.16F
KREMMLING      CLOUDY    41  32  70 NW3       30.19S
LEADVILLE      FLURRIES  29  24  82 N8        30.14R WCI  21
MONARCH PASS   CLOUDY    21  21 100 W20       30.28S WCI   6
SALIDA         FAIR      41  32  70 E5        30.21F
SUNLIGHT       CLOUDY   N/A N/A N/A MISG      30.26R
WILKERSON PASS FOG      N/A N/A N/A NW3G20    30.16S VSB 1/2
$$

COZ069>075-211800-
...SAN LUIS VALLEY/SANGRE DE CRISTO MOUNTAINS...

CITY           SKY/WX    TMP DP  RH WIND       PRES   REMARKS
ALAMOSA        MOSUNNY   44  26  49 N13       30.13F
DEL NORTE      FAIR      42  26  53 E6        30.15S
LA VETA PASS   LGT SNOW  32  25  74 NW5       30.27S WCI  27
SAGUACHE       NOT AVBL
$$

COZ035-036-038>040-211800-
...NORTHERN COLORADO FRONT RANGE...

CITY           SKY/WX    TMP DP  RH WIND       PRES   REMARKS
DENVER INTL AP LGT SNOW  33  31  92 NW9       30.18R VSB 3/4 WCI  25
DMNS CITY PARK NOT AVBL
AURORA         NOT AVBL
FRONT RANGE AP SNOW      36  34  93 NW8       30.19R VSB 1/2
ERIE MUNI ARPT LGT SNOW  34  34  98 N6        30.25S WCI  29
BOULDER MUN AP LGT SNOW  34  34 100 CALM      30.20S
CENTENNIAL     LGT SNOW  33  32  96 N9        30.18R VSB 1   WCI  25
BROOMFIELD     NOT AVBL
LOVELAND       LGT RAIN  37  37 100 NE6       30.20F
LONGMONT       LGT RAIN  38  36  90 NE3       30.22S
$$

COZ041-046-047-076>085-087-088-211800-
...PIKES PEAK/PALMER DIVIDE AND SOUTHERN FOOTHILLS...

CITY           SKY/WX    TMP DP  RH WIND       PRES   REMARKS
COLO. SPRINGS  CLOUDY    37  30  75 N8        30.15R
A. F. ACADEMY  PTSUNNY   36  30  77 N14       30.14R
SCHRIEVER AFB  NOT AVBL
CHEYENNE MTN   NOT AVBL
ELLICOTT         N/A    N/A N/A N/A N10       30.14R
FALCON         LGT SNOW  36  29  75 N9        30.16R
FORT CARSON    PTSUNNY   39  32  75 CALM      30.15R
LIMON          LGT SNOW  34  33  96 N6        30.17R FOG     WCI  29
MONUMENT HILL  LGT SNOW  30  28  93 NW10      30.17R VSB 1   WCI  21
CANON CITY     FAIR      43  37  81 CALM      30.13F
WALSENBURG     FAIR      48  32  53 N10       30.15S
TRINIDAD       CLOUDY    44  35  70 N14G23    30.15R
$$

COZ042>045-048>051-090-091-211800-
...NORTHEAST COLORADO...

CITY           SKY/WX    TMP DP  RH WIND       PRES   REMARKS
GREELEY ARPT   LGT RAIN  37  35  92 VRB5      30.21S
AKRON          LGT SNOW  33  33 100 E6        30.19S FOG     WCI  28
BURLINGTON     CLOUDY    39  37  92 NE9       30.18S
WRAY           DRIZZLE   37  37 100 E6        30.21S
YUMA           NOT AVBL
STERLING       NOT AVBL
HOLYOKE        CLOUDY    41  36  81 SE6       30.23R
FORT MORGAN    LGT RAIN  35  34  96 E5        30.21S WCI  31
$$

COZ086-089-092>099-211800-
...SOUTHEAST COLORADO...

CITY           SKY/WX    TMP DP  RH WIND       PRES   REMARKS
PUEBLO         CLOUDY    47  35  63 N9        30.15S
LA JUNTA       CLOUDY    45  40  82 E6        30.15S
LAMAR          CLOUDY    44  39  82 E5        30.13F
SPRINGFIELD      N/A     41  41 100 NE13      30.12R
$$




USA.gov is the U.S. government's official web portal to all federal, state and local government web resources and services.